Time,TemperatureF,DewpointF,PressureIn,WindDirection,WindDirectionDegrees,WindSpeedMPH,WindSpeedGustMPH,Humidity,HourlyPrecipIn,Conditions,Clouds,dailyrainin,SoftwareType,DateUTC
2014-10-23 00:01:00,51.6,28.7,30.15,West,280,0.0,0.0,41,0.00,,---,0.00,VWS V14.01,2014-10-23 04:01:00,
2014-10-23 00:06:00,51.6,28.7,30.15,West,280,0.0,0.0,41,0.00,,---,0.00,VWS V14.01,2014-10-23 04:06:00,
2014-10-23 00:11:00,51.4,28.5,30.15,West,280,0.0,0.0,41,0.00,,---,0.00,VWS V14.01,2014-10-23 04:11:00,
2014-10-23 00:16:00,51.3,28.4,30.15,West,280,0.0,0.0,41,0.00,,---,0.00,VWS V14.01,2014-10-23 04:16:00,
2014-10-23 00:21:00,51.3,28.4,30.15,West,280,0.0,0.0,41,0.00,,---,0.00,VWS V14.01,2014-10-23 04:21:00,
2014-10-23 00:26:00,51.1,28.8,30.15,West,280,0.0,0.0,42,0.00,,---,0.00,VWS V14.01,2014-10-23 04:26:00,
2014-10-23 00:31:00,50.9,28.6,30.12,West,280,0.0,0.0,42,0.00,,---,0.00,VWS V14.01,2014-10-23 04:31:00,
2014-10-23 00:36:00,50.9,28.6,30.12,West,280,0.0,0.0,42,0.00,,---,0.00,VWS V14.01,2014-10-23 04:36:00,
2014-10-23 00:41:00,50.7,28.5,30.12,West,280,0.0,0.0,42,0.00,,---,0.00,VWS V14.01,2014-10-23 04:41:00,
2014-10-23 00:46:00,50.4,28.2,30.15,West,280,0.0,0.0,42,0.00,,---,0.00,VWS V14.01,2014-10-23 04:46:00,
2014-10-23 00:51:00,50.2,28.0,30.15,West,280,0.0,0.0,42,0.00,,---,0.00,VWS V14.01,2014-10-23 04:51:00,
2014-10-23 00:56:00,50.0,27.8,30.15,West,280,0.0,0.0,42,0.00,,---,0.00,VWS V14.01,2014-10-23 04:56:00,
2014-10-23 01:01:00,49.8,27.7,30.15,West,280,0.0,0.0,42,0.00,,---,0.00,VWS V14.01,2014-10-23 05:01:00,
2014-10-23 01:06:00,49.5,27.3,30.15,West,280,0.0,0.0,42,0.00,,---,0.00,VWS V14.01,2014-10-23 05:06:00,
2014-10-23 01:11:00,49.3,27.2,30.15,West,280,0.0,0.0,42,0.00,,---,0.00,VWS V14.01,2014-10-23 05:11:00,
2014-10-23 01:16:00,49.3,27.2,30.15,West,280,0.0,0.0,42,0.00,,---,0.00,VWS V14.01,2014-10-23 05:16:00,
2014-10-23 01:21:00,49.3,27.8,30.15,West,280,0.0,0.0,43,0.00,,---,0.00,VWS V14.01,2014-10-23 05:21:00,
2014-10-23 01:26:00,49.3,27.8,30.15,West,280,0.0,0.0,43,0.00,,---,0.00,VWS V14.01,2014-10-23 05:26:00,
2014-10-23 01:31:00,49.1,27.6,30.15,West,280,0.0,0.0,43,0.00,,---,0.00,VWS V14.01,2014-10-23 05:31:00,
2014-10-23 01:36:00,48.7,27.3,30.15,West,280,0.0,0.0,43,0.00,,---,0.00,VWS V14.01,2014-10-23 05:36:00,
2014-10-23 01:41:00,48.7,27.3,30.15,West,280,0.0,0.0,43,0.00,,---,0.00,VWS V14.01,2014-10-23 05:41:00,
2014-10-23 01:46:00,48.7,27.3,30.15,West,280,0.0,0.0,43,0.00,,---,0.00,VWS V14.01,2014-10-23 05:46:00,
2014-10-23 01:51:00,48.7,27.3,30.15,West,280,0.0,0.0,43,0.00,,---,0.00,VWS V14.01,2014-10-23 05:51:00,
2014-10-23 01:56:00,48.7,27.3,30.15,West,280,0.0,0.0,43,0.00,,---,0.00,VWS V14.01,2014-10-23 05:56:00,
2014-10-23 02:01:00,48.6,27.1,30.15,West,280,0.0,0.0,43,0.00,,---,0.00,VWS V14.01,2014-10-23 06:01:00,
2014-10-23 02:06:00,48.6,27.6,30.15,West,280,0.0,0.0,44,0.00,,---,0.00,VWS V14.01,2014-10-23 06:06:00,
2014-10-23 02:11:00,48.4,27.5,30.15,West,280,0.0,0.0,44,0.00,,---,0.00,VWS V14.01,2014-10-23 06:11:00,
2014-10-23 02:16:00,48.2,27.3,30.15,West,280,0.0,0.0,44,0.00,,---,0.00,VWS V14.01,2014-10-23 06:16:00,
2014-10-23 02:21:00,47.8,27.0,30.15,West,280,0.0,0.0,44,0.00,,---,0.00,VWS V14.01,2014-10-23 06:21:00,
2014-10-23 02:26:00,47.5,26.7,30.15,West,280,0.0,0.0,44,0.00,,---,0.00,VWS V14.01,2014-10-23 06:26:00,
2014-10-23 02:31:00,47.7,26.8,30.15,West,280,0.0,0.0,44,0.00,,---,0.00,VWS V14.01,2014-10-23 06:31:00,
2014-10-23 02:36:00,47.7,26.8,30.15,West,280,0.0,0.0,44,0.00,,---,0.00,VWS V14.01,2014-10-23 06:36:00,
2014-10-23 02:41:00,47.7,26.8,30.15,West,280,0.0,0.0,44,0.00,,---,0.00,VWS V14.01,2014-10-23 06:41:00,
2014-10-23 02:46:00,47.5,26.7,30.15,West,280,0.0,0.0,44,0.00,,---,0.00,VWS V14.01,2014-10-23 06:46:00,
2014-10-23 02:51:00,47.3,27.0,30.15,West,280,0.0,0.0,45,0.00,,---,0.00,VWS V14.01,2014-10-23 06:51:00,
2014-10-23 02:56:00,47.1,26.3,30.15,West,280,0.0,0.0,44,0.00,,---,0.00,VWS V14.01,2014-10-23 06:56:00,
2014-10-23 03:01:00,47.1,26.9,30.12,West,280,0.0,0.0,45,0.00,,---,0.00,VWS V14.01,2014-10-23 07:01:00,
2014-10-23 03:06:00,47.1,26.9,30.12,West,280,0.0,0.0,45,0.00,,---,0.00,VWS V14.01,2014-10-23 07:06:00,
2014-10-23 03:11:00,46.9,26.7,30.12,West,280,0.0,0.0,45,0.00,,---,0.00,VWS V14.01,2014-10-23 07:11:00,
2014-10-23 03:16:00,46.8,26.6,30.15,West,280,0.0,0.0,45,0.00,,---,0.00,VWS V14.01,2014-10-23 07:16:00,
2014-10-23 03:21:00,46.8,26.6,30.15,West,280,0.0,0.0,45,0.00,,---,0.00,VWS V14.01,2014-10-23 07:21:00,
2014-10-23 03:26:00,46.8,26.6,30.15,West,280,0.0,0.0,45,0.00,,---,0.00,VWS V14.01,2014-10-23 07:26:00,
2014-10-23 03:31:00,46.6,26.4,30.12,West,280,0.0,0.0,45,0.00,,---,0.00,VWS V14.01,2014-10-23 07:31:00,
2014-10-23 03:36:00,46.8,26.6,30.12,West,280,0.0,0.0,45,0.00,,---,0.00,VWS V14.01,2014-10-23 07:36:00,
2014-10-23 03:41:00,46.8,26.6,30.12,West,280,0.0,0.0,45,0.00,,---,0.00,VWS V14.01,2014-10-23 07:41:00,
2014-10-23 03:46:00,46.6,26.4,30.12,West,280,0.0,0.0,45,0.00,,---,0.00,VWS V14.01,2014-10-23 07:46:00,
2014-10-23 03:51:00,46.6,26.4,30.12,West,280,0.0,0.0,45,0.00,,---,0.00,VWS V14.01,2014-10-23 07:51:00,
2014-10-23 03:56:00,46.4,26.8,30.12,West,280,0.0,0.0,46,0.00,,---,0.00,VWS V14.01,2014-10-23 07:56:00,
2014-10-23 04:01:00,46.2,26.6,30.12,West,280,0.0,0.0,46,0.00,,---,0.00,VWS V14.01,2014-10-23 08:01:00,
2014-10-23 04:06:00,46.2,26.6,30.12,West,280,0.0,0.0,46,0.00,,---,0.00,VWS V14.01,2014-10-23 08:06:00,
2014-10-23 04:11:00,46.2,26.6,30.12,West,280,0.0,0.0,46,0.00,,---,0.00,VWS V14.01,2014-10-23 08:11:00,
2014-10-23 04:16:00,45.9,26.3,30.12,West,280,0.0,0.0,46,0.00,,---,0.00,VWS V14.01,2014-10-23 08:16:00,
2014-10-23 04:21:00,45.9,26.3,30.12,West,280,0.0,0.0,46,0.00,,---,0.00,VWS V14.01,2014-10-23 08:21:00,
2014-10-23 04:26:00,45.5,25.9,30.12,West,280,0.0,0.0,46,0.00,,---,0.00,VWS V14.01,2014-10-23 08:26:00,
2014-10-23 04:31:00,45.9,26.8,30.12,West,280,0.0,0.0,47,0.00,,---,0.00,VWS V14.01,2014-10-23 08:31:00,
2014-10-23 04:36:00,46.0,27.0,30.12,West,280,0.0,0.0,47,0.00,,---,0.00,VWS V14.01,2014-10-23 08:36:00,
2014-10-23 04:41:00,46.0,27.0,30.12,West,280,0.0,0.0,47,0.00,,---,0.00,VWS V14.01,2014-10-23 08:41:00,
2014-10-23 04:46:00,45.7,26.6,30.12,West,280,0.0,0.0,47,0.00,,---,0.00,VWS V14.01,2014-10-23 08:46:00,
2014-10-23 04:51:00,45.9,26.8,30.12,West,280,0.0,0.0,47,0.00,,---,0.00,VWS V14.01,2014-10-23 08:51:00,
2014-10-23 04:56:00,45.9,26.8,30.12,West,280,0.0,0.0,47,0.00,,---,0.00,VWS V14.01,2014-10-23 08:56:00,
2014-10-23 05:01:00,45.5,26.5,30.12,West,280,0.0,0.0,47,0.00,,---,0.00,VWS V14.01,2014-10-23 09:01:00,
2014-10-23 05:06:00,45.5,26.5,30.12,West,280,0.0,0.0,47,0.00,,---,0.00,VWS V14.01,2014-10-23 09:06:00,
2014-10-23 05:11:00,45.3,26.3,30.12,West,280,0.0,0.0,47,0.00,,---,0.00,VWS V14.01,2014-10-23 09:11:00,
2014-10-23 05:16:00,45.0,26.0,30.12,West,280,0.0,0.0,47,0.00,,---,0.00,VWS V14.01,2014-10-23 09:16:00,
2014-10-23 05:21:00,45.3,26.3,30.12,West,280,0.0,0.0,47,0.00,,---,0.00,VWS V14.01,2014-10-23 09:21:00,
2014-10-23 05:26:00,45.3,26.3,30.12,West,280,0.0,0.0,47,0.00,,---,0.00,VWS V14.01,2014-10-23 09:26:00,
2014-10-23 05:31:00,45.5,26.5,30.12,West,280,0.0,0.0,47,0.00,,---,0.00,VWS V14.01,2014-10-23 09:31:00,
2014-10-23 05:36:00,45.0,26.0,30.12,West,280,0.0,0.0,47,0.00,,---,0.00,VWS V14.01,2014-10-23 09:36:00,
2014-10-23 05:41:00,44.8,25.8,30.12,West,280,0.0,0.0,47,0.00,,---,0.00,VWS V14.01,2014-10-23 09:41:00,
2014-10-23 05:46:00,45.0,26.0,30.12,West,280,0.0,0.0,47,0.00,,---,0.00,VWS V14.01,2014-10-23 09:46:00,
2014-10-23 05:51:00,45.0,26.5,30.12,West,280,0.0,0.0,48,0.00,,---,0.00,VWS V14.01,2014-10-23 09:51:00,
2014-10-23 05:56:00,45.0,26.5,30.12,West,280,0.0,0.0,48,0.00,,---,0.00,VWS V14.01,2014-10-23 09:56:00,
2014-10-23 06:01:00,44.6,25.6,30.12,West,280,0.0,0.0,47,0.00,,---,0.00,VWS V14.01,2014-10-23 10:01:00,
2014-10-23 06:06:00,44.4,26.0,30.12,West,280,0.0,0.0,48,0.00,,---,0.00,VWS V14.01,2014-10-23 10:06:00,
2014-10-23 06:11:00,44.4,26.0,30.12,West,280,0.0,0.0,48,0.00,,---,0.00,VWS V14.01,2014-10-23 10:11:00,
2014-10-23 06:16:00,44.4,26.0,30.12,West,280,0.0,0.0,48,0.00,,---,0.00,VWS V14.01,2014-10-23 10:16:00,
2014-10-23 06:21:00,44.4,26.0,30.12,West,280,0.0,0.0,48,0.00,,---,0.00,VWS V14.01,2014-10-23 10:21:00,
2014-10-23 06:26:00,44.2,25.8,30.12,West,280,0.0,0.0,48,0.00,,---,0.00,VWS V14.01,2014-10-23 10:26:00,
2014-10-23 06:31:00,44.6,26.1,30.15,West,280,0.0,0.0,48,0.00,,---,0.00,VWS V14.01,2014-10-23 10:31:00,
2014-10-23 06:36:00,44.8,26.3,30.15,West,280,0.0,0.0,48,0.00,,---,0.00,VWS V14.01,2014-10-23 10:36:00,
2014-10-23 06:41:00,44.6,26.1,30.15,West,280,0.0,0.0,48,0.00,,---,0.00,VWS V14.01,2014-10-23 10:41:00,
2014-10-23 06:46:00,44.2,25.8,30.15,West,280,0.0,0.0,48,0.00,,---,0.00,VWS V14.01,2014-10-23 10:46:00,
2014-10-23 06:51:00,44.2,25.8,30.15,West,280,0.0,0.0,48,0.00,,---,0.00,VWS V14.01,2014-10-23 10:51:00,
2014-10-23 06:56:00,44.2,25.8,30.15,West,280,0.0,0.0,48,0.00,,---,0.00,VWS V14.01,2014-10-23 10:56:00,
2014-10-23 07:01:00,44.4,26.0,30.12,West,280,0.0,0.0,48,0.00,,---,0.00,VWS V14.01,2014-10-23 11:01:00,
2014-10-23 07:06:00,44.2,25.8,30.12,West,280,0.0,0.0,48,0.00,,---,0.00,VWS V14.01,2014-10-23 11:06:00,
2014-10-23 07:11:00,44.4,26.5,30.12,West,280,0.0,0.0,49,0.00,,---,0.00,VWS V14.01,2014-10-23 11:11:00,
2014-10-23 07:16:00,44.6,26.1,30.15,West,280,0.0,0.0,48,0.00,,---,0.00,VWS V14.01,2014-10-23 11:16:00,
2014-10-23 07:21:00,44.6,26.1,30.15,West,280,0.0,0.0,48,0.00,,---,0.00,VWS V14.01,2014-10-23 11:21:00,
2014-10-23 07:26:00,44.6,26.1,30.15,West,280,0.0,0.0,48,0.00,,---,0.00,VWS V14.01,2014-10-23 11:26:00,
2014-10-23 07:31:00,44.8,26.3,30.15,West,280,0.0,0.0,48,0.00,,---,0.00,VWS V14.01,2014-10-23 11:31:00,
2014-10-23 07:36:00,44.8,26.3,30.15,West,280,0.0,0.0,48,0.00,,---,0.00,VWS V14.01,2014-10-23 11:36:00,
2014-10-23 07:41:00,45.0,27.0,30.15,West,280,0.0,0.0,49,0.00,,---,0.00,VWS V14.01,2014-10-23 11:41:00,
2014-10-23 07:46:00,45.1,27.1,30.15,West,280,0.0,0.0,49,0.00,,---,0.00,VWS V14.01,2014-10-23 11:46:00,
2014-10-23 07:51:00,45.1,27.1,30.15,West,280,0.0,0.0,49,0.00,,---,0.00,VWS V14.01,2014-10-23 11:51:00,
2014-10-23 07:56:00,45.0,27.0,30.15,West,280,0.0,0.0,49,0.00,,---,0.00,VWS V14.01,2014-10-23 11:56:00,
2014-10-23 08:01:00,45.1,27.1,30.15,West,280,0.0,0.0,49,0.00,,---,0.00,VWS V14.01,2014-10-23 12:01:00,
2014-10-23 08:06:00,45.3,27.3,30.15,West,280,0.0,0.0,49,0.00,,---,0.00,VWS V14.01,2014-10-23 12:06:00,
2014-10-23 08:11:00,45.5,27.5,30.15,West,280,0.0,0.0,49,0.00,,---,0.00,VWS V14.01,2014-10-23 12:11:00,
2014-10-23 08:16:00,45.5,27.5,30.15,West,280,0.0,0.0,49,0.00,,---,0.00,VWS V14.01,2014-10-23 12:16:00,
2014-10-23 08:21:00,45.9,27.8,30.15,West,280,0.0,0.0,49,0.00,,---,0.00,VWS V14.01,2014-10-23 12:21:00,
2014-10-23 08:26:00,46.0,28.0,30.15,West,280,0.0,0.0,49,0.00,,---,0.00,VWS V14.01,2014-10-23 12:26:00,
2014-10-23 08:31:00,46.2,28.1,30.15,West,280,0.0,0.0,49,0.00,,---,0.00,VWS V14.01,2014-10-23 12:31:00,
2014-10-23 08:36:00,46.6,28.5,30.15,West,280,0.0,0.0,49,0.00,,---,0.00,VWS V14.01,2014-10-23 12:36:00,
2014-10-23 08:41:00,46.8,28.6,30.15,West,280,0.0,0.0,49,0.00,,---,0.00,VWS V14.01,2014-10-23 12:41:00,
2014-10-23 08:46:00,46.9,28.8,30.15,West,280,0.0,2.7,49,0.00,,---,0.00,VWS V14.01,2014-10-23 12:46:00,
2014-10-23 08:51:00,47.1,29.0,30.15,West,280,0.0,3.1,49,0.00,,---,0.00,VWS V14.01,2014-10-23 12:51:00,
2014-10-23 08:56:00,47.5,29.3,30.15,West,280,0.0,0.0,49,0.00,,---,0.00,VWS V14.01,2014-10-23 12:56:00,
2014-10-23 09:01:00,47.7,30.0,30.15,West,280,2.7,2.7,50,0.00,,---,0.00,VWS V14.01,2014-10-23 13:01:00,
2014-10-23 09:06:00,47.8,30.1,30.15,West,280,0.0,0.0,50,0.00,,---,0.00,VWS V14.01,2014-10-23 13:06:00,
2014-10-23 09:11:00,48.2,30.0,30.15,West,280,0.0,2.2,49,0.00,,---,0.00,VWS V14.01,2014-10-23 13:11:00,
2014-10-23 09:16:00,48.6,30.3,30.15,West,280,3.6,3.6,49,0.00,,---,0.00,VWS V14.01,2014-10-23 13:16:00,
2014-10-23 09:21:00,48.9,30.6,30.15,West,280,2.2,2.7,49,0.00,,---,0.00,VWS V14.01,2014-10-23 13:21:00,
2014-10-23 09:26:00,49.5,31.1,30.15,West,280,2.7,2.7,49,0.00,,---,0.00,VWS V14.01,2014-10-23 13:26:00,
2014-10-23 09:31:00,49.8,31.9,30.15,West,280,0.0,4.0,50,0.00,,---,0.00,VWS V14.01,2014-10-23 13:31:00,
2014-10-23 09:36:00,50.2,31.8,30.15,West,280,2.7,3.1,49,0.00,,---,0.00,VWS V14.01,2014-10-23 13:36:00,
2014-10-23 09:41:00,50.7,32.3,30.15,West,280,2.2,2.7,49,0.00,,---,0.00,VWS V14.01,2014-10-23 13:41:00,
2014-10-23 09:46:00,51.1,32.6,30.15,West,280,3.1,3.1,49,0.00,,---,0.00,VWS V14.01,2014-10-23 13:46:00,
2014-10-23 09:51:00,51.3,32.8,30.15,West,280,0.0,0.0,49,0.00,,---,0.00,VWS V14.01,2014-10-23 13:51:00,
2014-10-23 09:56:00,51.6,33.1,30.15,West,280,2.7,3.1,49,0.00,,---,0.00,VWS V14.01,2014-10-23 13:56:00,
2014-10-23 10:01:00,51.8,33.3,30.15,West,280,2.7,4.5,49,0.00,,---,0.00,VWS V14.01,2014-10-23 14:01:00,
2014-10-23 10:06:00,52.0,33.4,30.15,WSW,249,3.1,4.0,49,0.00,,---,0.00,VWS V14.01,2014-10-23 14:06:00,
2014-10-23 10:11:00,52.3,33.8,30.15,WNW,286,3.1,3.6,49,0.00,,---,0.00,VWS V14.01,2014-10-23 14:11:00,
2014-10-23 10:16:00,52.7,33.6,30.15,West,278,3.1,3.1,48,0.00,,---,0.00,VWS V14.01,2014-10-23 14:16:00,
2014-10-23 10:21:00,53.1,33.9,30.15,West,280,2.7,2.7,48,0.00,,---,0.00,VWS V14.01,2014-10-23 14:21:00,
2014-10-23 10:26:00,53.2,34.1,30.15,NW,311,3.6,3.6,48,0.00,,---,0.00,VWS V14.01,2014-10-23 14:26:00,
2014-10-23 10:31:00,53.4,34.2,30.15,West,277,3.6,3.6,48,0.00,,---,0.00,VWS V14.01,2014-10-23 14:31:00,
2014-10-23 10:36:00,53.8,34.6,30.15,West,277,0.0,0.0,48,0.00,,---,0.00,VWS V14.01,2014-10-23 14:36:00,
2014-10-23 10:41:00,54.0,34.7,30.15,West,277,0.0,2.2,48,0.00,,---,0.00,VWS V14.01,2014-10-23 14:41:00,
2014-10-23 10:46:00,54.1,34.4,30.15,West,277,2.7,2.7,47,0.00,,---,0.00,VWS V14.01,2014-10-23 14:46:00,
2014-10-23 10:51:00,54.3,34.5,30.15,West,279,8.3,8.3,47,0.00,,---,0.00,VWS V14.01,2014-10-23 14:51:00,
2014-10-23 10:56:00,54.5,34.7,30.15,West,260,2.2,3.6,47,0.00,,---,0.00,VWS V14.01,2014-10-23 14:56:00,
2014-10-23 11:01:00,54.7,34.9,30.15,SSW,192,2.7,3.1,47,0.00,,---,0.00,VWS V14.01,2014-10-23 15:01:00,
2014-10-23 11:06:00,55.0,35.2,30.15,WSW,258,3.6,3.6,47,0.00,,---,0.00,VWS V14.01,2014-10-23 15:06:00,
2014-10-23 11:11:00,55.0,35.2,30.15,WSW,258,0.0,2.7,47,0.00,,---,0.00,VWS V14.01,2014-10-23 15:11:00,
2014-10-23 11:16:00,55.6,35.2,30.15,WSW,258,3.1,3.6,46,0.00,,---,0.00,VWS V14.01,2014-10-23 15:16:00,
2014-10-23 11:21:00,55.8,35.3,30.15,WSW,258,2.2,2.2,46,0.00,,---,0.00,VWS V14.01,2014-10-23 15:21:00,
2014-10-23 11:26:00,55.9,35.5,30.15,WSW,258,3.1,3.1,46,0.00,,---,0.00,VWS V14.01,2014-10-23 15:26:00,
2014-10-23 11:31:00,56.1,35.6,30.15,WSW,258,2.7,3.1,46,0.00,,---,0.00,VWS V14.01,2014-10-23 15:31:00,
2014-10-23 11:36:00,56.3,35.8,30.15,WSW,258,3.1,3.1,46,0.00,,---,0.00,VWS V14.01,2014-10-23 15:36:00,
2014-10-23 11:41:00,56.5,36.0,30.15,WSW,258,2.7,4.0,46,0.00,,---,0.00,VWS V14.01,2014-10-23 15:41:00,
2014-10-23 11:46:00,56.7,36.1,30.15,WSW,258,2.7,2.7,46,0.00,,---,0.00,VWS V14.01,2014-10-23 15:46:00,
2014-10-23 11:51:00,56.7,36.1,30.15,WSW,258,0.0,3.1,46,0.00,,---,0.00,VWS V14.01,2014-10-23 15:51:00,
2014-10-23 11:56:00,56.8,35.7,30.15,WSW,258,3.1,4.0,45,0.00,,---,0.00,VWS V14.01,2014-10-23 15:56:00,
2014-10-23 12:01:00,57.0,35.9,30.15,WSW,258,4.0,4.0,45,0.00,,---,0.00,VWS V14.01,2014-10-23 16:01:00,
2014-10-23 12:06:00,57.2,36.1,30.15,WSW,258,3.6,3.6,45,0.00,,---,0.00,VWS V14.01,2014-10-23 16:06:00,
2014-10-23 12:11:00,57.2,36.1,30.15,West,267,4.5,4.9,45,0.00,,---,0.00,VWS V14.01,2014-10-23 16:11:00,
2014-10-23 12:16:00,57.4,36.2,30.15,West,267,2.7,2.7,45,0.00,,---,0.00,VWS V14.01,2014-10-23 16:16:00,
2014-10-23 12:21:00,57.6,36.4,30.15,WNW,293,0.0,2.2,45,0.00,,---,0.00,VWS V14.01,2014-10-23 16:21:00,
2014-10-23 12:25:00,57.7,36.0,30.15,WNW,283,2.2,3.6,44,0.00,,---,0.00,VWS V14.01,2014-10-23 16:25:00,
2014-10-23 12:30:00,57.9,36.2,30.12,WNW,283,3.6,4.9,44,0.00,,---,0.00,VWS V14.01,2014-10-23 16:30:00,
2014-10-23 12:35:00,57.9,36.2,30.12,WNW,283,2.7,3.1,44,0.00,,---,0.00,VWS V14.01,2014-10-23 16:35:00,
2014-10-23 12:40:00,58.1,36.3,30.12,WNW,282,2.2,3.1,44,0.00,,---,0.00,VWS V14.01,2014-10-23 16:40:00,
2014-10-23 12:45:00,58.1,36.3,30.12,WNW,282,0.0,2.2,44,0.00,,---,0.00,VWS V14.01,2014-10-23 16:45:00,
2014-10-23 12:50:00,58.5,36.7,30.12,WNW,296,2.2,5.4,44,0.00,,---,0.00,VWS V14.01,2014-10-23 16:50:00,
2014-10-23 12:55:00,58.5,36.7,30.12,WNW,284,2.7,2.7,44,0.00,,---,0.00,VWS V14.01,2014-10-23 16:55:00,
2014-10-23 13:00:00,58.8,36.4,30.09,WNW,284,2.7,3.1,43,0.00,,---,0.00,VWS V14.01,2014-10-23 17:00:00,
2014-10-23 13:05:00,58.8,36.4,30.09,WNW,284,2.7,2.7,43,0.00,,---,0.00,VWS V14.01,2014-10-23 17:05:00,
2014-10-23 13:10:00,59.2,36.7,30.09,WNW,284,2.2,4.0,43,0.00,,---,0.00,VWS V14.01,2014-10-23 17:10:00,
2014-10-23 13:15:00,59.4,36.9,30.09,WNW,283,2.7,2.7,43,0.00,,---,0.00,VWS V14.01,2014-10-23 17:15:00,
2014-10-23 13:20:00,59.4,36.9,30.09,WNW,283,3.1,3.6,43,0.00,,---,0.00,VWS V14.01,2014-10-23 17:20:00,
2014-10-23 13:25:00,59.7,36.6,30.09,West,263,3.1,3.6,42,0.00,,---,0.00,VWS V14.01,2014-10-23 17:25:00,
2014-10-23 13:30:00,59.7,36.6,30.09,West,263,4.9,5.4,42,0.00,,---,0.00,VWS V14.01,2014-10-23 17:30:00,
2014-10-23 13:35:00,60.1,36.9,30.09,West,263,5.4,5.4,42,0.00,,---,0.00,VWS V14.01,2014-10-23 17:35:00,
2014-10-23 13:40:00,60.3,37.1,30.09,West,263,3.1,3.1,42,0.00,,---,0.00,VWS V14.01,2014-10-23 17:40:00,
2014-10-23 13:45:00,60.4,37.3,30.09,West,263,5.8,5.8,42,0.00,,---,0.00,VWS V14.01,2014-10-23 17:45:00,
2014-10-23 13:50:00,60.8,37.0,30.09,WNW,283,3.6,5.4,41,0.00,,---,0.00,VWS V14.01,2014-10-23 17:50:00,
2014-10-23 13:55:00,61.2,37.3,30.09,WNW,288,0.0,3.1,41,0.00,,---,0.00,VWS V14.01,2014-10-23 17:55:00,
2014-10-23 14:00:00,61.5,37.6,30.06,WNW,287,3.1,3.1,41,0.00,,---,0.00,VWS V14.01,2014-10-23 18:00:00,
2014-10-23 14:05:00,61.7,37.8,30.06,WNW,287,2.7,3.1,41,0.00,,---,0.00,VWS V14.01,2014-10-23 18:05:00,
2014-10-23 14:10:00,61.7,37.8,30.06,WNW,286,3.1,3.1,41,0.00,,---,0.00,VWS V14.01,2014-10-23 18:10:00,
2014-10-23 14:15:00,61.9,37.3,30.09,WNW,286,3.6,3.6,40,0.00,,---,0.00,VWS V14.01,2014-10-23 18:15:00,
2014-10-23 14:20:00,61.9,37.3,30.09,West,265,4.0,5.8,40,0.00,,---,0.00,VWS V14.01,2014-10-23 18:20:00,
2014-10-23 14:25:00,62.1,37.5,30.09,West,265,3.6,4.0,40,0.00,,---,0.00,VWS V14.01,2014-10-23 18:25:00,
2014-10-23 14:30:00,62.1,37.5,30.06,WNW,283,3.6,3.6,40,0.00,,---,0.00,VWS V14.01,2014-10-23 18:30:00,
2014-10-23 14:35:00,62.2,37.6,30.06,WNW,292,2.7,2.7,40,0.00,,---,0.00,VWS V14.01,2014-10-23 18:35:00,
2014-10-23 14:40:00,62.2,37.0,30.06,WNW,297,2.7,3.1,39,0.00,,---,0.00,VWS V14.01,2014-10-23 18:40:00,
2014-10-23 14:45:00,62.2,37.0,30.06,WNW,294,0.0,2.7,39,0.00,,---,0.00,VWS V14.01,2014-10-23 18:45:00,
2014-10-23 14:50:00,62.2,37.0,30.06,WNW,292,0.0,2.2,39,0.00,,---,0.00,VWS V14.01,2014-10-23 18:50:00,
2014-10-23 14:55:00,62.4,37.2,30.06,WNW,292,4.0,4.0,39,0.00,,---,0.00,VWS V14.01,2014-10-23 18:55:00,
2014-10-23 15:00:00,62.6,37.3,30.06,WNW,292,2.7,3.6,39,0.00,,---,0.00,VWS V14.01,2014-10-23 19:00:00,
2014-10-23 15:05:00,62.8,36.8,30.06,WNW,295,2.7,4.0,38,0.00,,---,0.00,VWS V14.01,2014-10-23 19:05:00,
2014-10-23 15:10:00,62.8,36.8,30.06,WNW,292,4.0,4.0,38,0.00,,---,0.00,VWS V14.01,2014-10-23 19:10:00,
2014-10-23 15:15:00,63.0,37.0,30.06,WNW,303,3.6,3.6,38,0.00,,---,0.00,VWS V14.01,2014-10-23 19:15:00,
2014-10-23 15:20:00,63.0,37.0,30.06,WNW,296,3.6,4.9,38,0.00,,---,0.00,VWS V14.01,2014-10-23 19:20:00,
2014-10-23 15:25:00,63.1,37.1,30.06,West,270,2.7,3.6,38,0.00,,---,0.00,VWS V14.01,2014-10-23 19:25:00,
2014-10-23 15:30:00,63.1,37.1,30.06,West,270,2.2,3.1,38,0.00,,---,0.00,VWS V14.01,2014-10-23 19:30:00,
2014-10-23 15:35:00,63.1,37.1,30.06,West,270,0.0,0.0,38,0.00,,---,0.00,VWS V14.01,2014-10-23 19:35:00,
2014-10-23 15:40:00,63.1,37.1,30.06,West,270,4.0,4.0,38,0.00,,---,0.00,VWS V14.01,2014-10-23 19:40:00,
2014-10-23 15:45:00,63.3,37.3,30.06,West,270,0.0,2.7,38,0.00,,---,0.00,VWS V14.01,2014-10-23 19:45:00,
2014-10-23 15:50:00,63.3,37.3,30.06,West,270,2.7,3.1,38,0.00,,---,0.00,VWS V14.01,2014-10-23 19:50:00,
2014-10-23 15:55:00,63.5,36.8,30.06,West,270,2.2,3.1,37,0.00,,---,0.00,VWS V14.01,2014-10-23 19:55:00,
2014-10-23 16:00:00,63.3,36.6,30.06,WNW,285,3.6,3.6,37,0.00,,---,0.00,VWS V14.01,2014-10-23 20:00:00,
2014-10-23 16:05:00,63.5,36.8,30.06,WNW,295,2.7,3.1,37,0.00,,---,0.00,VWS V14.01,2014-10-23 20:05:00,
2014-10-23 16:10:00,63.5,36.8,30.06,West,279,3.6,3.6,37,0.00,,---,0.00,VWS V14.01,2014-10-23 20:10:00,
2014-10-23 16:15:00,63.5,36.8,30.03,West,279,2.2,2.7,37,0.00,,---,0.00,VWS V14.01,2014-10-23 20:15:00,
2014-10-23 16:20:00,63.5,36.8,30.03,West,279,3.6,3.6,37,0.00,,---,0.00,VWS V14.01,2014-10-23 20:20:00,
2014-10-23 16:25:00,63.5,36.8,30.03,West,279,3.6,4.9,37,0.00,,---,0.00,VWS V14.01,2014-10-23 20:25:00,
2014-10-23 16:30:00,63.7,37.0,30.03,West,279,2.2,3.1,37,0.00,,---,0.00,VWS V14.01,2014-10-23 20:30:00,
2014-10-23 16:35:00,63.7,37.0,30.03,West,279,2.2,2.2,37,0.00,,---,0.00,VWS V14.01,2014-10-23 20:35:00,
2014-10-23 16:40:00,63.7,37.0,30.03,West,279,2.2,2.2,37,0.00,,---,0.00,VWS V14.01,2014-10-23 20:40:00,
2014-10-23 16:45:00,63.7,37.0,30.03,West,279,3.1,3.1,37,0.00,,---,0.00,VWS V14.01,2014-10-23 20:45:00,
2014-10-23 16:50:00,63.5,36.8,30.03,West,280,0.0,3.1,37,0.00,,---,0.00,VWS V14.01,2014-10-23 20:50:00,
2014-10-23 16:55:00,63.5,36.8,30.03,West,280,3.1,3.1,37,0.00,,---,0.00,VWS V14.01,2014-10-23 20:55:00,
2014-10-23 17:00:00,63.5,36.8,30.06,West,274,0.0,2.2,37,0.00,,---,0.00,VWS V14.01,2014-10-23 21:00:00,
2014-10-23 17:05:00,63.5,36.8,30.06,West,274,0.0,0.0,37,0.00,,---,0.00,VWS V14.01,2014-10-23 21:05:00,
2014-10-23 17:10:00,63.5,36.8,30.06,West,274,4.0,4.0,37,0.00,,---,0.00,VWS V14.01,2014-10-23 21:10:00,
2014-10-23 17:15:00,63.5,36.8,30.06,West,274,3.6,3.6,37,0.00,,---,0.00,VWS V14.01,2014-10-23 21:15:00,
2014-10-23 17:20:00,63.5,36.1,30.06,West,274,2.7,2.7,36,0.00,,---,0.00,VWS V14.01,2014-10-23 21:20:00,
2014-10-23 17:25:00,63.5,36.1,30.06,West,274,0.0,2.2,36,0.00,,---,0.00,VWS V14.01,2014-10-23 21:25:00,
2014-10-23 17:30:00,63.3,35.9,30.06,West,274,2.7,3.1,36,0.00,,---,0.00,VWS V14.01,2014-10-23 21:30:00,
2014-10-23 17:35:00,63.3,35.9,30.06,West,274,2.2,2.7,36,0.00,,---,0.00,VWS V14.01,2014-10-23 21:35:00,
2014-10-23 17:40:00,63.1,35.8,30.06,West,274,0.0,0.0,36,0.00,,---,0.00,VWS V14.01,2014-10-23 21:40:00,
2014-10-23 17:45:00,63.1,35.8,30.06,West,274,0.0,0.0,36,0.00,,---,0.00,VWS V14.01,2014-10-23 21:45:00,